Location: Bieg
(49.3499°N, 10.3835°E)
Time: 00:46:08
(UTC+00:00)

CZ-2D R/B - Pass Details

Date: 23 May 2024
Orbit: 791 x 843 km, 98.8° (Epoch: 15 June)

Event Time Altitude Azimuth Distance (km) Brightness Sun altitude
Rises 00:10:25 0° 25° (NNE) 3,412 6.9 -18.9°
Reaches altitude 10° 00:13:23 10° 41° (NE) 2,469 5.6 -18.8°
Maximum altitude 00:17:32 22° 91° (E) 1,769 4.0 -18.7°
Enters shadow 00:21:25 11° 139° (SE) 2,377 4.2 -18.5°
